Weather History for Cairo, IL

Change the Weather History Date:

Thursday, April 11, 2013

  Actual Average Record
Temperature  
Mean Temperature 58 °F -  
Max Temperature 68 °F 68 °F 85 °F (1977)
Min Temperature 46 °F 47 °F 30 °F (1989)
Degree Days  
Heating Degree Days 8    
Growing Degree Days 8 (Base 50)    
Moisture  
Dew Point 51 °F    
Average Humidity 82    
Maximum Humidity 91    
Minimum Humidity 60    
Precipitation  
Precipitation 0.46 in - - ()
Sea Level Pressure  
Sea Level Pressure 29.70 in    
Wind  
Wind Speed 7 mph (WSW)    
Max Wind Speed 15 mph    
Max Gust Speed 22 mph    
Visibility 9 miles    
Events Rain , Thunderstorm    
Averages and records for this station are not official NWS values.
T = Trace of Precipitation, MM = Missing Value Source: NWS Daily Summary

Daily Weather History Graph

Daily Weather History Graph

Search for Another Location

Airport:

Trip Planner

Search our weather history database for the weather conditions in past years. The results will help you decide how hot, cold, wet, or windy it might be!

Date:

Astronomy

Apr. 11, 2013 Rise Set
Actual Time 6:27 AM CDT 7:28 PM CDT
Civil Twilight 6:01 AM CDT 7:55 PM CDT
Nautical Twilight 5:29 AM CDT 8:26 PM CDT
Astronomical Twilight 4:56 AM CDT 8:59 PM CDT
Moon 7:01 AM CDT (4/11) 9:00 PM CDT (4/11)
Length of Visible Light 13h 53m
Length of Day
13h 00m
New Moon, 2% of the Moon is Illuminated
Apr 11
New Moon
Apr 18
First Quarter
Apr 25
Full
May 2
Last Quarter
May 9
New

Hourly Weather History & Observations

Time (CDT) Temp. Dew Point Humidity Pressure Visibility Wind Dir Wind Speed Gust Speed Precip Events Conditions
12:15 AM 66.4 °F 62.8 °F 88% 29.75 in 5.0 mi East 4.6 mph - 0.06 in Rain Heavy Rain
12:35 AM 66.2 °F 62.8 °F 89% 29.73 in 7.0 mi East 4.6 mph - 0.13 in Rain , Thunderstorm Thunderstorms and Rain
12:55 AM 66.4 °F 63.1 °F 89% 29.74 in 3.0 mi Calm Calm - 0.22 in Rain Heavy Rain
1:15 AM 66.4 °F 63.3 °F 90% 29.72 in 5.0 mi ESE 9.2 mph - 0.08 in Rain , Thunderstorm Heavy Thunderstorms and Rain
1:35 AM 66.4 °F 63.5 °F 90% 29.71 in 5.0 mi East 3.5 mph - 0.17 in Rain , Thunderstorm Heavy Thunderstorms and Rain
2:15 AM 67.3 °F 64.4 °F 90% 29.65 in 10.0 mi SE 15.0 mph - 0.03 in Rain , Thunderstorm Light Thunderstorms and Rain
2:35 AM 67.1 °F 64.4 °F 91% 29.66 in 10.0 mi SSE 4.6 mph - 0.05 in Rain Light Rain
2:55 AM 67.1 °F 64.4 °F 91% 29.64 in 10.0 mi Calm Calm - 0.06 in Rain Rain
3:15 AM 67.3 °F 64.4 °F 90% 29.64 in 10.0 mi South 4.6 mph - N/A   Light Drizzle
3:35 AM 67.6 °F 64.8 °F 90% 29.65 in 10.0 mi South 10.4 mph - N/A   Overcast
3:55 AM 68.0 °F 64.9 °F 90% 29.66 in 10.0 mi South 12.7 mph 18.4 mph N/A   Overcast
4:15 AM 67.8 °F 64.9 °F 90% 29.65 in 5.0 mi South 12.7 mph 17.3 mph N/A   Drizzle
4:35 AM 67.6 °F 64.8 °F 90% 29.66 in 5.0 mi SSW 11.5 mph 18.4 mph 0.01 in Rain Rain
4:55 AM 66.2 °F 63.1 °F 90% 29.67 in 10.0 mi SSW 13.8 mph 20.7 mph 0.01 in   Overcast
5:15 AM 64.8 °F 61.7 °F 90% 29.67 in 10.0 mi WSW 15.0 mph 19.6 mph N/A   Overcast
5:35 AM 62.6 °F 59.5 °F 90% 29.67 in 10.0 mi WSW 11.5 mph 18.4 mph N/A   Overcast
5:55 AM 59.9 °F 56.8 °F 90% 29.67 in 10.0 mi WSW 8.1 mph - N/A   Overcast
6:15 AM 59.4 °F 56.3 °F 90% 29.67 in 10.0 mi WSW 9.2 mph - N/A   Overcast
6:35 AM 59.0 °F 55.8 °F 89% 29.68 in 10.0 mi SW 5.8 mph - N/A   Overcast
6:55 AM 58.8 °F 55.4 °F 88% 29.69 in 10.0 mi SW 5.8 mph - N/A   Overcast
7:15 AM 58.5 °F 55.0 °F 88% 29.69 in 10.0 mi WSW 5.8 mph - N/A   Overcast
7:35 AM 58.1 °F 54.7 °F 88% 29.71 in 4.0 mi WSW 8.1 mph - N/A   Overcast
7:55 AM 57.4 °F 53.8 °F 88% 29.72 in 7.0 mi WSW 9.2 mph - N/A   Overcast
8:15 AM 57.2 °F 53.4 °F 87% 29.72 in 10.0 mi WSW 9.2 mph - N/A   Overcast
8:35 AM 55.9 °F 52.2 °F 87% 29.71 in 2.0 mi WSW 5.8 mph - N/A   Overcast
8:55 AM 55.6 °F 52.0 °F 88% 29.73 in 10.0 mi WSW 10.4 mph - N/A   Overcast
9:15 AM 54.7 °F 50.9 °F 87% 29.75 in 10.0 mi WSW 10.4 mph - N/A   Overcast
9:35 AM 53.6 °F 49.6 °F 86% 29.75 in 10.0 mi WSW 11.5 mph - N/A   Drizzle
9:55 AM 53.6 °F 49.8 °F 87% 29.74 in 10.0 mi West 9.2 mph - N/A   Light Drizzle
10:15 AM 53.6 °F 50.0 °F 88% 29.73 in 10.0 mi WSW 6.9 mph - N/A   Overcast
10:35 AM 53.6 °F 50.0 °F 88% 29.73 in 10.0 mi SW 4.6 mph - N/A   Light Drizzle
10:55 AM 54.0 °F 50.4 °F 88% 29.71 in 10.0 mi Calm Calm - N/A   Drizzle
11:15 AM 54.3 °F 50.5 °F 87% 29.73 in 10.0 mi WSW 8.1 mph - N/A   Overcast
11:35 AM 54.1 °F 50.4 °F 87% 29.76 in 10.0 mi SW 12.7 mph - N/A   Overcast
12:15 PM 53.1 °F 49.1 °F 86% 29.74 in 10.0 mi WSW 8.1 mph - N/A Rain Light Rain
12:35 PM 52.7 °F 48.6 °F 86% 29.74 in 10.0 mi WSW 9.2 mph - N/A Rain Rain
12:55 PM 52.9 °F 48.7 °F 86% 29.72 in 10.0 mi SW 3.5 mph - N/A   Overcast
1:15 PM 52.7 °F 48.6 °F 86% 29.73 in 10.0 mi WSW 10.4 mph - N/A Rain Light Rain
1:35 PM 52.2 °F 48.2 °F 86% 29.71 in 5.0 mi WSW 8.1 mph - N/A   Light Drizzle
1:55 PM 51.8 °F 48.2 °F 88% 29.70 in 4.0 mi WSW 4.6 mph - N/A   Overcast
2:15 PM 52.2 °F 48.4 °F 87% 29.70 in 7.0 mi SW 8.1 mph - N/A   Overcast
2:35 PM 51.8 °F 47.8 °F 86% 29.72 in 10.0 mi WSW 10.4 mph - N/A   Overcast
2:55 PM 52.2 °F 48.0 °F 86% 29.67 in 10.0 mi Calm Calm - N/A   Overcast
3:15 PM 53.2 °F 48.6 °F 84% 29.68 in 10.0 mi West 4.6 mph - N/A   Overcast
3:35 PM 53.1 °F 47.8 °F 82% 29.68 in 10.0 mi West 6.9 mph - N/A   Overcast
3:55 PM 54.0 °F 48.4 °F 81% 29.69 in 10.0 mi WSW 6.9 mph - N/A   Mostly Cloudy
4:15 PM 54.0 °F 47.8 °F 80% 29.66 in 10.0 mi West 4.6 mph - N/A   Mostly Cloudy
4:35 PM 54.1 °F 47.8 °F 79% 29.64 in 10.0 mi West 4.6 mph - N/A   Overcast
4:55 PM 54.1 °F 47.5 °F 78% 29.65 in 10.0 mi West 5.8 mph - N/A   Overcast
5:15 PM 54.7 °F 47.5 °F 77% 29.66 in 10.0 mi West 9.2 mph - N/A   Overcast
5:35 PM 55.2 °F 47.5 °F 75% 29.68 in 10.0 mi West 8.1 mph - N/A   Overcast
5:55 PM 55.0 °F 46.8 °F 74% 29.69 in 10.0 mi WSW 10.4 mph - N/A   Overcast
6:15 PM 54.7 °F 45.9 °F 72% 29.69 in 10.0 mi WSW 6.9 mph - N/A   Overcast
6:35 PM 54.9 °F 46.0 °F 72% 29.68 in 10.0 mi West 4.6 mph - N/A   Mostly Cloudy
6:55 PM 54.5 °F 45.7 °F 72% 29.68 in 10.0 mi West 6.9 mph - N/A   Scattered Clouds
7:15 PM 54.0 °F 45.0 °F 72% 29.68 in 10.0 mi WSW 8.1 mph - N/A   Clear
7:35 PM 53.6 °F 45.1 °F 73% 29.69 in 10.0 mi WSW 3.5 mph - N/A   Mostly Cloudy
7:55 PM 52.9 °F 44.8 °F 74% 29.70 in 10.0 mi SW 3.5 mph - N/A   Mostly Cloudy
8:15 PM 52.2 °F 44.6 °F 75% 29.70 in 10.0 mi WSW 4.6 mph - N/A   Scattered Clouds
8:35 PM 52.5 °F 43.9 °F 72% 29.71 in 10.0 mi West 9.2 mph - N/A   Mostly Cloudy
8:55 PM 53.1 °F 43.5 °F 70% 29.72 in 10.0 mi West 5.8 mph - N/A   Overcast
9:15 PM 52.9 °F 43.3 °F 70% 29.72 in 10.0 mi West 5.8 mph - N/A   Overcast
9:35 PM 52.7 °F 42.8 °F 69% 29.72 in 10.0 mi West 11.5 mph - N/A   Overcast
9:55 PM 51.8 °F 38.5 °F 60% 29.74 in 10.0 mi NW 11.5 mph 21.9 mph N/A   Mostly Cloudy
10:15 PM 51.1 °F 37.4 °F 60% 29.76 in 10.0 mi WNW 12.7 mph 19.6 mph N/A   Mostly Cloudy
10:35 PM 49.6 °F 37.0 °F 62% 29.77 in 10.0 mi NW 15.0 mph - N/A   Scattered Clouds
10:55 PM 48.6 °F 36.3 °F 63% 29.78 in 10.0 mi WNW 13.8 mph 19.6 mph N/A   Clear
11:15 PM 47.8 °F 35.8 °F 63% 29.78 in 10.0 mi WNW 10.4 mph 17.3 mph N/A   Clear
11:35 PM 47.3 °F 34.5 °F 61% 29.78 in 10.0 mi WNW 11.5 mph 18.4 mph N/A   Clear
11:55 PM 46.6 °F 34.3 °F 62% 29.79 in 10.0 mi NW 8.1 mph - N/A   Clear